Terminal Aerodrome Forecast
Issued by NWS Charleston, WV

Current Version | Previous Version | Graphics & Text | Print | Product List | Glossary On
Versions: 1 2 3 4 5 6 7 8 9 10 11 12 13 14 15 16 17 18 19 20 21 22 23 24
000
FTUS41 KRLX 280500
TAFPKB
TAF
KPKB 280538Z 2806/2906 24007KT P6SM SCT025
     FM280700 26007KT 6SM BR BKN025
     FM280900 27007KT 6SM BR BKN015
     FM281400 27010G15KT P6SM SCT020
     FM281800 29011G16KT P6SM VCTS BKN035CB
     FM282100 30009G14KT P6SM BKN035
     FM290100 33005KT P6SM BKN070
      AMD NOT SKED=

USA.gov is the U.S. government's official web portal to all federal, state and local government web resources and services.